| time (UTC) | temp C | wind direction | speed KPH | gust KPH | rain 1hr cm | rain 24hr cm | rain mn cm | humidity % | barometer mb |
| 20260505231307 | 24 | 194 | 9.7 | 19.3 | 0.00 | 0.00 | 0.00 | 44 | 1009.0 |
| 20260505230628 | 24 | 198 | 8.0 | 16.1 | 0.00 | 0.00 | 0.00 | 44 | 1009.0 |
| 20260505225947 | 25 | 199 | 6.4 | 14.5 | 0.00 | 0.00 | 0.00 | 43 | 1009.0 |
| 20260505225520 | 25 | 182 | 4.8 | 11.3 | 0.00 | 0.00 | 0.00 | 43 | 1009.0 |
| 20260505224627 | 25 | 207 | 6.4 | 17.7 | 0.00 | 0.00 | 0.00 | 42 | 1009.0 |
| 20260505224201 | 25 | 203 | 9.7 | 20.9 | 0.00 | 0.00 | 0.00 | 42 | 1009.3 |
| 20260505223517 | 25 | 207 | 9.7 | 20.9 | 0.00 | 0.00 | 0.00 | 41 | 1009.3 |
| 20260505222628 | 25 | 211 | 9.7 | 16.1 | 0.00 | 0.00 | 0.00 | 41 | 1009.3 |
| 20260505222158 | 25 | 202 | 8.0 | 17.7 | 0.00 | 0.00 | 0.00 | 41 | 1009.7 |
| 20260505221307 | 25 | 222 | 12.9 | 17.7 | 0.00 | 0.00 | 0.00 | 40 | 1009.3 |
| 20260505220628 | 26 | 193 | 9.7 | 22.5 | 0.00 | 0.00 | 0.00 | 38 | 1009.3 |
| 20260505215947 | 25 | 195 | 11.3 | 22.5 | 0.00 | 0.00 | 0.00 | 38 | 1009.3 |
| 20260505215307 | 26 | 186 | 9.7 | 20.9 | 0.00 | 0.00 | 0.00 | 38 | 1009.3 |
| 20260505214627 | 26 | 209 | 11.3 | 17.7 | 0.00 | 0.00 | 0.00 | 38 | 1009.7 |
| 20260505213947 | 26 | 215 | 11.3 | 20.9 | 0.00 | 0.00 | 0.00 | 38 | 1009.3 |
| 20260505213517 | 26 | 215 | 9.7 | 29.0 | 0.00 | 0.00 | 0.00 | 38 | 1009.3 |
| 20260505212627 | 26 | 215 | 12.9 | 29.0 | 0.00 | 0.00 | 0.00 | 38 | 1009.3 |
| 20260505212159 | 26 | 204 | 12.9 | 19.3 | 0.00 | 0.00 | 0.00 | 37 | 1009.3 |
| 20260505211519 | 26 | 179 | 9.7 | 22.5 | 0.00 | 0.00 | 0.00 | 37 | 1009.3 |
| 20260505210627 | 26 | 234 | 11.3 | 20.9 | 0.00 | 0.00 | 0.00 | 37 | 1009.3 |
| 20260505205947 | 26 | 189 | 9.7 | 19.3 | 0.00 | 0.00 | 0.00 | 38 | 1009.7 |
| 20260505205307 | 26 | 197 | 9.7 | 16.1 | 0.00 | 0.00 | 0.00 | 37 | 1009.7 |
| 20260505204627 | 26 | 198 | 9.7 | 20.9 | 0.00 | 0.00 | 0.00 | 39 | 1009.7 |
| 20260505203947 | 26 | 210 | 11.3 | 20.9 | 0.00 | 0.00 | 0.00 | 38 | 1009.7 |
| 20260505203518 | 26 | 206 | 9.7 | 20.9 | 0.00 | 0.00 | 0.00 | 38 | 1009.7 |
| 20260505202627 | 26 | 206 | 9.7 | 19.3 | 0.00 | 0.00 | 0.00 | 39 | 1009.7 |
| 20260505201947 | 26 | 191 | 11.3 | 20.9 | 0.00 | 0.00 | 0.00 | 36 | 1009.7 |
| 20260505201307 | 26 | 213 | 8.0 | 19.3 | 0.00 | 0.00 | 0.00 | 37 | 1009.7 |
| 20260505200627 | 26 | 188 | 8.0 | 16.1 | 0.00 | 0.00 | 0.00 | 37 | 1009.7 |
| 20260505195948 | 26 | 178 | 8.0 | 19.3 | 0.00 | 0.00 | 0.00 | 38 | 1010.0 |
| 20260505195307 | 26 | 186 | 6.4 | 20.9 | 0.00 | 0.00 | 0.00 | 37 | 1010.0 |
| 20260505194627 | 27 | 195 | 8.0 | 22.5 | 0.00 | 0.00 | 0.00 | 35 | 1010.0 |
| 20260505193947 | 26 | 235 | 11.3 | 25.7 | 0.00 | 0.00 | 0.00 | 35 | 1010.0 |
| 20260505193307 | 26 | 221 | 9.7 | 20.9 | 0.00 | 0.00 | 0.00 | 36 | 1010.3 |
| 20260505192628 | 25 | 174 | 8.0 | 25.7 | 0.00 | 0.00 | 0.00 | 37 | 1010.3 |
| 20260505192200 | 26 | 228 | 14.5 | 25.7 | 0.00 | 0.00 | 0.00 | 36 | 1010.7 |
| 20260505191521 | 26 | 215 | 8.0 | 17.7 | 0.00 | 0.00 | 0.00 | 35 | 1010.7 |
| 20260505190627 | 26 | 219 | 9.7 | 16.1 | 0.00 | 0.00 | 0.00 | 35 | 1010.7 |
| 20260505185947 | 26 | 199 | 6.4 | 17.7 | 0.00 | 0.00 | 0.00 | 36 | 1010.7 |
| 20260505185517 | 26 | 203 | 9.7 | 17.7 | 0.00 | 0.00 | 0.00 | 36 | 1011.0 |
| 20260505184838 | 26 | 225 | 9.7 | 17.7 | 0.00 | 0.00 | 0.00 | 36 | 1011.0 |
| 20260505183948 | 26 | 221 | 6.4 | 24.1 | 0.00 | 0.00 | 0.00 | 37 | 1011.0 |
| 20260505183307 | 26 | 185 | 9.7 | 22.5 | 0.00 | 0.00 | 0.00 | 36 | 1011.4 |
| 20260505182627 | 25 | 210 | 12.9 | 22.5 | 0.00 | 0.00 | 0.00 | 37 | 1011.4 |
| 20260505181947 | 26 | 238 | 4.8 | 20.9 | 0.00 | 0.00 | 0.00 | 39 | 1011.4 |
| 20260505181307 | 26 | 186 | 6.4 | 19.3 | 0.00 | 0.00 | 0.00 | 39 | 1011.4 |
| 20260505180627 | 25 | 215 | 9.7 | 19.3 | 0.00 | 0.00 | 0.00 | 38 | 1011.4 |
| 20260505175948 | 26 | 175 | 11.3 | 19.3 | 0.00 | 0.00 | 0.00 | 36 | 1011.4 |
| 20260505175518 | 26 | 231 | 9.7 | 22.5 | 0.00 | 0.00 | 0.00 | 38 | 1011.4 |
| 20260505174627 | 25 | 200 | 9.7 | 22.5 | 0.00 | 0.00 | 0.00 | 39 | 1011.4 |
| 20260505173947 | 25 | 197 | 12.9 | 22.5 | 0.00 | 0.00 | 0.00 | 39 | 1011.4 |
| 20260505173307 | 25 | 203 | 9.7 | 22.5 | 0.00 | 0.00 | 0.00 | 39 | 1011.4 |
| 20260505172627 | 25 | 180 | 11.3 | 22.5 | 0.00 | 0.00 | 0.00 | 39 | 1011.7 |
| 20260505171948 | 25 | 203 | 11.3 | 20.9 | 0.00 | 0.00 | 0.00 | 41 | 1011.7 |
| 20260505171308 | 25 | 220 | 6.4 | 19.3 | 0.00 | 0.00 | 0.00 | 41 | 1011.7 |
| 20260505170627 | 25 | 252 | 9.7 | 17.7 | 0.00 | 0.00 | 0.00 | 41 | 1011.7 |
| 20260505165947 | 25 | 229 | 9.7 | 20.9 | 0.00 | 0.00 | 0.00 | 42 | 1011.7 |
| 20260505165307 | 24 | 177 | 9.7 | 22.5 | 0.00 | 0.00 | 0.00 | 44 | 1011.7 |
| 20260505164627 | 24 | 216 | 9.7 | 24.1 | 0.00 | 0.00 | 0.00 | 43 | 1011.7 |
| 20260505163948 | 25 | 220 | 12.9 | 22.5 | 0.00 | 0.00 | 0.00 | 42 | 1012.0 |
| 20260505163307 | 24 | 205 | 6.4 | 22.5 | 0.00 | 0.00 | 0.00 | 44 | 1012.0 |
| 20260505162627 | 24 | 184 | 6.4 | 20.9 | 0.00 | 0.00 | 0.00 | 45 | 1012.0 |
| 20260505161947 | 24 | 198 | 6.4 | 20.9 | 0.00 | 0.00 | 0.00 | 46 | 1012.0 |
| 20260505161307 | 23 | 198 | 11.3 | 17.7 | 0.00 | 0.00 | 0.00 | 48 | 1012.0 |
| 20260505160627 | 24 | 174 | 8.0 | 14.5 | 0.00 | 0.00 | 0.00 | 47 | 1012.4 |
| 20260505160159 | 23 | 247 | 4.8 | 17.7 | 0.00 | 0.00 | 0.00 | 49 | 1012.4 |
| 20260505153308 | 22 | 213 | 6.4 | 19.3 | 0.00 | 0.00 | 0.00 | 51 | 1012.4 |
| 20260505152627 | 22 | 246 | 3.2 | 19.3 | 0.00 | 0.00 | 0.00 | 51 | 1012.4 |
| 20260505151947 | 22 | 232 | 9.7 | 16.1 | 0.00 | 0.00 | 0.00 | 51 | 1012.7 |
| 20260505151307 | 22 | 182 | 8.0 | 16.1 | 0.00 | 0.00 | 0.00 | 53 | 1012.7 |
| 20260505150627 | 21 | 190 | 8.0 | 16.1 | 0.00 | 0.00 | 0.00 | 54 | 1012.7 |
| 20260505140627 | 20 | 217 | 9.7 | 27.4 | 0.00 | 0.00 | 0.00 | 59 | 1012.4 |
| 20260505124627 | 17 | 223 | 6.4 | 14.5 | 0.00 | 0.00 | 0.00 | 68 | 1012.7 |
| 20260505123947 | 16 | 225 | 4.8 | 14.5 | 0.00 | 0.00 | 0.00 | 70 | 1012.7 |
| 20260505123307 | 16 | 217 | 6.4 | 14.5 | 0.00 | 0.00 | 0.00 | 70 | 1012.7 |
| 20260505122627 | 16 | 204 | 6.4 | 12.9 | 0.00 | 0.00 | 0.00 | 70 | 1012.7 |
| 20260505121947 | 15 | 206 | 6.4 | 12.9 | 0.00 | 0.00 | 0.00 | 70 | 1012.4 |
| 20260505121307 | 15 | 208 | 6.4 | 12.9 | 0.00 | 0.00 | 0.00 | 71 | 1012.4 |
| 20260505120627 | 15 | 226 | 4.8 | 14.5 | 0.00 | 0.00 | 0.00 | 73 | 1012.4 |
| 20260505115947 | 15 | 231 | 8.0 | 14.5 | 0.00 | 0.00 | 0.00 | 72 | 1012.4 |
| 20260505115306 | 15 | 196 | 3.2 | 9.7 | 0.00 | 0.00 | 0.00 | 74 | 1012.4 |
| 20260505114626 | 14 | 207 | 4.8 | 9.7 | 0.00 | 0.00 | 0.00 | 74 | 1012.4 |
| 20260505113946 | 14 | 217 | 4.8 | 9.7 | 0.00 | 0.00 | 0.00 | 74 | 1012.4 |
| 20260505113519 | 14 | 197 | 3.2 | 6.4 | 0.00 | 0.00 | 0.00 | 76 | 1012.4 |
| 20260505112839 | 13 | 202 | 3.2 | 4.8 | 0.00 | 0.00 | 0.00 | 78 | 1012.4 |
| 20260505111946 | 13 | 168 | 3.2 | 6.4 | 0.00 | 0.00 | 0.00 | 79 | 1012.0 |
| 20260505111306 | 13 | 185 | 3.2 | 6.4 | 0.00 | 0.00 | 0.00 | 79 | 1012.0 |
| 20260505110627 | 12 | 182 | 3.2 | 6.4 | 0.00 | 0.00 | 0.00 | 81 | 1012.0 |
| 20260505101947 | 12 | 207 | 4.8 | 8.0 | 0.00 | 0.00 | 0.00 | 79 | 1011.4 |
| 20260505101307 | 12 | 190 | 3.2 | 8.0 | 0.00 | 0.00 | 0.00 | 79 | 1011.4 |
| 20260505100626 | 12 | 197 | 3.2 | 8.0 | 0.00 | 0.00 | 0.00 | 80 | 1011.4 |
| 20260505095946 | 12 | 188 | 3.2 | 8.0 | 0.00 | 0.00 | 0.00 | 79 | 1011.4 |
| 20260505095306 | 12 | 191 | 3.2 | 8.0 | 0.00 | 0.00 | 0.00 | 78 | 1011.4 |
| 20260505094626 | 13 | 202 | 3.2 | 8.0 | 0.00 | 0.00 | 0.00 | 78 | 1011.0 |
| 20260505093946 | 12 | 192 | 4.8 | 8.0 | 0.00 | 0.00 | 0.00 | 78 | 1011.0 |
| 20260505093520 | 12 | 202 | 4.8 | 6.4 | 0.00 | 0.00 | 0.00 | 78 | 1011.0 |
| 20260505092626 | 13 | 215 | 3.2 | 6.4 | 0.00 | 0.00 | 0.00 | 77 | 1011.0 |
| 20260505091946 | 13 | 219 | 3.2 | 6.4 | 0.00 | 0.00 | 0.00 | 77 | 1011.0 |
| 20260505091306 | 13 | 204 | 3.2 | 8.0 | 0.00 | 0.00 | 0.00 | 76 | 1011.0 |
| 20260505090838 | 13 | 231 | 3.2 | 8.0 | 0.00 | 0.00 | 0.00 | 76 | 1011.0 |
| 20260505085946 | 13 | 214 | 3.2 | 6.4 | 0.00 | 0.00 | 0.00 | 75 | 1011.0 |
| 20260505085307 | 13 | 225 | 3.2 | 6.4 | 0.00 | 0.00 | 0.00 | 75 | 1011.0 |
| 20260505084626 | 13 | 199 | 3.2 | 6.4 | 0.00 | 0.00 | 0.00 | 74 | 1011.0 |
| 20260505083946 | 13 | 214 | 3.2 | 6.4 | 0.00 | 0.00 | 0.00 | 74 | 1010.7 |
| 20260505083516 | 13 | 195 | 3.2 | 6.4 | 0.00 | 0.00 | 0.00 | 73 | 1010.7 |
| 20260505082626 | 13 | 210 | 3.2 | 4.8 | 0.00 | 0.00 | 0.00 | 73 | 1010.7 |
| 20260505081946 | 14 | 205 | 1.6 | 6.4 | 0.00 | 0.00 | 0.00 | 72 | 1010.7 |
| 20260505081517 | 14 | 210 | 3.2 | 8.0 | 0.00 | 0.00 | 0.00 | 71 | 1010.7 |
| 20260505080627 | 14 | 212 | 3.2 | 8.0 | 0.00 | 0.00 | 0.00 | 71 | 1010.7 |
| 20260505080159 | 14 | 204 | 3.2 | 8.0 | 0.00 | 0.00 | 0.00 | 70 | 1010.7 |
| 20260505075306 | 14 | 200 | 4.8 | 8.0 | 0.00 | 0.00 | 0.00 | 70 | 1010.7 |
| 20260505074627 | 14 | 204 | 4.8 | 11.3 | 0.00 | 0.00 | 0.00 | 69 | 1010.7 |
| 20260505073947 | 15 | 204 | 6.4 | 11.3 | 0.00 | 0.00 | 0.00 | 69 | 1010.7 |
| 20260505073307 | 15 | 190 | 4.8 | 11.3 | 0.00 | 0.00 | 0.00 | 68 | 1010.7 |
| 20260505072627 | 15 | 197 | 4.8 | 9.7 | 0.00 | 0.00 | 0.00 | 68 | 1010.7 |
| 20260505072157 | 15 | 201 | 6.4 | 9.7 | 0.00 | 0.00 | 0.00 | 68 | 1010.7 |
| 20260505071307 | 15 | 217 | 6.4 | 9.7 | 0.00 | 0.00 | 0.00 | 68 | 1010.7 |
| 20260505070627 | 15 | 202 | 4.8 | 9.7 | 0.00 | 0.00 | 0.00 | 68 | 1010.7 |
| 20260505070159 | 15 | 201 | 4.8 | 11.3 | 0.00 | 0.00 | 0.00 | 68 | 1010.7 |
| 20260505065308 | 15 | 189 | 3.2 | 9.7 | 0.00 | 0.00 | 0.00 | 67 | 1010.7 |
| 20260505064627 | 15 | 183 | 4.8 | 9.7 | 0.00 | 0.00 | 0.00 | 66 | 1010.3 |
| 20260505063947 | 15 | 190 | 3.2 | 11.3 | 0.00 | 0.00 | 0.00 | 65 | 1010.7 |
| 20260505063308 | 15 | 174 | 4.8 | 12.9 | 0.00 | 0.00 | 0.00 | 66 | 1010.7 |
| 20260505062627 | 15 | 182 | 3.2 | 9.7 | 0.00 | 0.00 | 0.00 | 65 | 1010.3 |
| 20260505062158 | 15 | 183 | 4.8 | 11.3 | 0.00 | 0.00 | 0.00 | 64 | 1010.7 |
| 20260505061308 | 15 | 205 | 6.4 | 11.3 | 0.00 | 0.00 | 0.00 | 64 | 1010.7 |
| 20260505060628 | 16 | 187 | 4.8 | 9.7 | 0.00 | 0.00 | 0.00 | 64 | 1010.7 |
| 20260505055948 | 16 | 187 | 4.8 | 9.7 | 0.00 | 0.00 | 0.00 | 63 | 1010.7 |
| 20260505055308 | 16 | 194 | 4.8 | 12.9 | 0.00 | 0.00 | 0.00 | 63 | 1010.7 |
| 20260505054628 | 16 | 196 | 4.8 | 11.3 | 0.00 | 0.00 | 0.00 | 62 | 1010.7 |
| 20260505054157 | 16 | 209 | 4.8 | 9.7 | 0.00 | 0.00 | 0.00 | 62 | 1010.7 |
| 20260505053307 | 16 | 192 | 4.8 | 9.7 | 0.00 | 0.00 | 0.00 | 61 | 1010.7 |
| 20260505052627 | 16 | 193 | 4.8 | 11.3 | 0.00 | 0.00 | 0.00 | 61 | 1010.7 |
| 20260505051947 | 16 | 199 | 6.4 | 11.3 | 0.00 | 0.00 | 0.00 | 61 | 1010.7 |
| 20260505051307 | 16 | 206 | 6.4 | 11.3 | 0.00 | 0.00 | 0.00 | 60 | 1010.7 |
| 20260505050840 | 16 | 206 | 6.4 | 12.9 | 0.00 | 0.00 | 0.00 | 60 | 1011.0 |
| 20260505050200 | 17 | 205 | 8.0 | 12.9 | 0.00 | 0.00 | 0.00 | 60 | 1011.0 |
| 20260505041307 | 17 | 201 | 6.4 | 14.5 | 0.00 | 0.00 | 0.00 | 59 | 1010.7 |
| 20260505040627 | 17 | 192 | 8.0 | 12.9 | 0.00 | 0.00 | 0.00 | 59 | 1011.0 |
| 20260505035947 | 17 | 205 | 8.0 | 19.3 | 0.00 | 0.00 | 0.00 | 59 | 1010.7 |
| 20260505035307 | 17 | 190 | 8.0 | 17.7 | 0.00 | 0.00 | 0.00 | 58 | 1010.7 |
| 20260505034627 | 17 | 188 | 4.8 | 16.1 | 0.00 | 0.00 | 0.00 | 58 | 1010.7 |
| 20260505034158 | 17 | 202 | 8.0 | 12.9 | 0.00 | 0.00 | 0.00 | 58 | 1010.7 |
| 20260505033308 | 17 | 215 | 8.0 | 12.9 | 0.00 | 0.00 | 0.00 | 58 | 1010.7 |
| 20260505032627 | 17 | 187 | 6.4 | 12.9 | 0.00 | 0.00 | 0.00 | 58 | 1010.7 |
| 20260505031947 | 17 | 188 | 6.4 | 14.5 | 0.00 | 0.00 | 0.00 | 57 | 1010.7 |
| 20260505031307 | 17 | 201 | 6.4 | 19.3 | 0.00 | 0.00 | 0.00 | 57 | 1010.7 |
| 20260505030627 | 17 | 203 | 11.3 | 19.3 | 0.00 | 0.00 | 0.00 | 56 | 1010.7 |
| 20260505025947 | 18 | 210 | 6.4 | 14.5 | 0.00 | 0.00 | 0.00 | 57 | 1010.7 |
| 20260505025307 | 18 | 194 | 6.4 | 12.9 | 0.00 | 0.00 | 0.00 | 57 | 1010.7 |
| 20260505024627 | 18 | 196 | 4.8 | 12.9 | 0.00 | 0.00 | 0.00 | 56 | 1010.7 |
| 20260505023947 | 18 | 197 | 6.4 | 16.1 | 0.00 | 0.00 | 0.00 | 56 | 1010.7 |
| 20260505023307 | 18 | 193 | 6.4 | 16.1 | 0.00 | 0.00 | 0.00 | 56 | 1010.7 |
| 20260505022627 | 18 | 187 | 8.0 | 14.5 | 0.00 | 0.00 | 0.00 | 55 | 1010.7 |
| 20260505021947 | 18 | 202 | 6.4 | 16.1 | 0.00 | 0.00 | 0.00 | 55 | 1010.7 |
| 20260505021308 | 19 | 196 | 9.7 | 14.5 | 0.00 | 0.00 | 0.00 | 55 | 1010.7 |
| 20260505020627 | 19 | 194 | 6.4 | 22.5 | 0.00 | 0.00 | 0.00 | 55 | 1010.7 |
| 20260505015948 | 19 | 210 | 11.3 | 22.5 | 0.00 | 0.00 | 0.00 | 55 | 1010.3 |
| 20260505015307 | 19 | 208 | 9.7 | 14.5 | 0.00 | 0.00 | 0.00 | 54 | 1010.3 |
| 20260505014628 | 20 | 198 | 6.4 | 20.9 | 0.00 | 0.00 | 0.00 | 54 | 1010.3 |
| 20260505013947 | 20 | 213 | 9.7 | 20.9 | 0.00 | 0.00 | 0.00 | 53 | 1010.3 |
| 20260505013307 | 20 | 178 | 8.0 | 12.9 | 0.00 | 0.00 | 0.00 | 52 | 1010.0 |
| 20260505012627 | 20 | 188 | 6.4 | 14.5 | 0.00 | 0.00 | 0.00 | 49 | 1010.0 |
| 20260505011947 | 20 | 192 | 4.8 | 12.9 | 0.00 | 0.00 | 0.00 | 47 | 1010.0 |
| 20260505011517 | 20 | 184 | 6.4 | 12.9 | 0.00 | 0.00 | 0.00 | 45 | 1010.0 |
| 20260505010837 | 20 | 190 | 4.8 | 11.3 | 0.00 | 0.00 | 0.00 | 42 | 1009.7 |
| 20260505010158 | 21 | 186 | 6.4 | 14.5 | 0.00 | 0.00 | 0.00 | 40 | 1009.7 |
| 20260505005307 | 21 | 183 | 3.2 | 8.0 | 0.00 | 0.00 | 0.00 | 40 | 1009.3 |
| 20260505004627 | 21 | 181 | 4.8 | 8.0 | 0.00 | 0.00 | 0.00 | 38 | 1009.3 |
| 20260505003947 | 21 | 203 | 4.8 | 8.0 | 0.00 | 0.00 | 0.00 | 38 | 1009.3 |
| 20260505003307 | 21 | 193 | 3.2 | 9.7 | 0.00 | 0.00 | 0.00 | 37 | 1009.0 |
| 20260505002627 | 21 | 197 | 4.8 | 9.7 | 0.00 | 0.00 | 0.00 | 36 | 1009.0 |
| 20260505002157 | 21 | 194 | 3.2 | 8.0 | 0.00 | 0.00 | 0.00 | 36 | 1009.0 |
| 20260505001307 | 22 | 199 | 4.8 | 11.3 | 0.00 | 0.00 | 0.00 | 36 | 1009.0 |
| 20260505000627 | 22 | 200 | 3.2 | 11.3 | 0.00 | 0.00 | 0.00 | 35 | 1009.0 |
| 20260504235947 | 22 | 200 | 4.8 | 11.3 | 0.00 | 0.00 | 0.00 | 34 | 1009.0 |
| 20260504235308 | 22 | 184 | 4.8 | 9.7 | 0.00 | 0.00 | 0.00 | 34 | 1009.0 |
| 20260504234627 | 23 | 218 | 4.8 | 11.3 | 0.00 | 0.00 | 0.00 | 33 | 1009.0 |
| 20260504234200 | 23 | 193 | 4.8 | 11.3 | 0.00 | 0.00 | 0.00 | 33 | 1008.6 |
| 20260504233307 | 23 | 195 | 4.8 | 12.9 | 0.00 | 0.00 | 0.00 | 32 | 1008.6 |
| 20260504232627 | 23 | 201 | 6.4 | 12.9 | 0.00 | 0.00 | 0.00 | 32 | 1008.6 |
| 20260504231947 | 23 | 196 | 6.4 | 16.1 | 0.00 | 0.00 | 0.00 | 31 | 1008.6 |